This is the latest recevied weather packets stored in our database for station/object W5LND-10. If no packets are shown the sender has not sent any weather packets the latest 10 day(s).
| Time | Temp. | Humidity | Pressure | Rain* | Wind** | Luminosity | Snow |
|---|---|---|---|---|---|---|---|
| 1777684580 | 14.44° C | 59% | 1016.8 hPa | 0 mm | - | 7 W/m² | - |
| 1777684280 | 14.44° C | 59% | 1016.8 hPa | 0 mm | - | 9 W/m² | - |
| 1777683980 | 14.44° C | 59% | 1016.5 hPa | 0 mm | - | 11 W/m² | - |
| 1777683680 | 15° C | 58% | 1016.6 hPa | 0 mm | - | 12 W/m² | - |
| 1777683380 | 15° C | 59% | 1016.5 hPa | 0 mm | - | 14 W/m² | - |
| 1777683081 | 15° C | 58% | 1016.6 hPa | 0 mm | - | 18 W/m² | - |
| 1777682780 | 15° C | 59% | 1016.4 hPa | 0 mm | - | 28 W/m² | - |
| 1777682480 | 15° C | 59% | 1016.3 hPa | 0 mm | - | 47 W/m² | - |
| 1777682181 | 15° C | 60% | 1016.2 hPa | 0 mm | - | 72 W/m² | - |
| 1777681881 | 15° C | 61% | 1016.1 hPa | 0 mm | - | 111 W/m² | - |
| 1777681580 | 15° C | 61% | 1016.1 hPa | 0 mm | - | 97 W/m² | - |
| 1777681281 | 15° C | 60% | 1016 hPa | 0 mm | - | 56 W/m² | - |
| 1777680981 | 15° C | 60% | 1016 hPa | 0 mm | - | 76 W/m² | - |
| 1777680680 | 15° C | 59% | 1015.8 hPa | 0 mm | - | 54 W/m² | - |
| 1777680381 | 15.56° C | 59% | 1015.7 hPa | 0 mm | - | 74 W/m² | - |
| 1777680081 | 15.56° C | 59% | 1015.5 hPa | 0 mm | - | 118 W/m² | - |
| 1777679780 | 15.56° C | 58% | 1015.5 hPa | 0 mm | - | 146 W/m² | - |
| 1777679481 | 15.56° C | 59% | 1015.5 hPa | 0 mm | - | 134 W/m² | - |
| 1777679180 | 15.56° C | 58% | 1015.4 hPa | 0 mm | - | 134 W/m² | - |
| 1777678881 | 15.56° C | 58% | 1015.3 hPa | 0 mm | - | 171 W/m² | - |
| 1777678580 | 15.56° C | 56% | 1015.3 hPa | 0 mm | - | 151 W/m² | - |
| 1777678281 | 16.11° C | 55% | 1015.2 hPa | 0 mm | - | 137 W/m² | - |
| 1777677981 | 16.11° C | 53% | 1015.2 hPa | 0 mm | - | 169 W/m² | - |
| 1777677681 | 16.11° C | 54% | 1015.2 hPa | 0 mm | - | 262 W/m² | - |
| 1777677381 | 16.11° C | 57% | 1015.1 hPa | 0 mm | - | 341 W/m² | - |
* Rain latest hour (hover to see other rain measurements)
** Current wind speed in m/s (hover to see current wind gust speed)